Durango International Airport
MMDO : now visible

Airfield :











YOU CAN JOIN US ON...

 
LOGIN :

Register | Disclaimer

   EN    FR    IT 

 









Legend :    VFR   Marginal VFR   IFR   Intensive IFR   Very Intensive IFR
Visi :
Ceiling :
>= 8 km
>= 3000ft
5 to 8 km
1000 to 3000 ft
1500m to 5 km
500 to 1000 ft
800 to 1500m
200 to 500 ft
< 800m
< 200 ft
Symbols :   Thunderstorms  Fog  Heavy snow  Heavy precipitations  Wind > 20 kt






- Airport Elevation : 6104 ft
- IATA code : DGO


MMDO - Durango International

CURRENT METAR :
  • 172342Z 18009KT 10SM SCT020 BKN025TCU 24/06 A3015 RMK SLP074 57003 900 8/200 RA NE STN

EXPIRED METARs :
  • 172244Z 20007KT 12SM SCT025 BKN025TCU 21/09 A3015 RMK 8/200
  • 172143Z 13010KT 10SM SCT020 OVC025TCU 24/06 A3015 RMK 8/2// BINOVC RA E STN

TAF TAF MMDO
Valid from the 17 at 18:00 until the 18 at 18:00 UTC


171702Z 1718/1818 08015KT P6SM SCT030
BECMG 1721/1722 SCT030CB
PROB40 1800/1803 6SM -TSRA
FM180300 04005KT P6SM SCT030
BECMG 1817/1818 06010KT
MMFR FIR / North America



MET'MAP, your aeronautical weather chart ! - Copyright ORBIFLY December 2007 - Disclaimer

ORBIFLY MET'MAP TEAM :

Programming & Development : Alexandra Zaïnal
Concept & original design : Baudouin d'Aumeries
Assistance for programming : Marc-Olivier Méhu
Technical & hardware support : Manuel Goepfert

Contact : metmap@orbifly.com




SOURCES & CREDITS :

   NOAA       Earth
Advisory